Flag for Germany Weather past 2 weeks in Paderborn, North Rhine-Westphalia, Germany

Now
41 °F

Broken clouds.


Feels Like: 38 °F
Forecast: 34 / 44 °F
Wind: 5 mph from West

Location: Paderborn / Lippstadt

Current Time: Mar 5, 2015 at 5:56:17 PM

Latest Report: Mar 5, 2015 at 5:20 PM


Visibility: N/A

Pressure: 30.60 "Hg

Humidity: 81%

Dew point: 36 °F

Location of PaderbornLocation

Historic Weather in Paderborn — Graph

°F

Paderborn temperature yesterday

Maximum temperature yesterday: 39 °F (at 1:20 PM)
Minimum temperature yesterday: 32 °F (at 12:50 AM)
Average temperature yesterday: 36 °F

Past Weeks' High & Low Weather Summary

 TemperatureHumidityPressure
High48 °F (Mar 1, 11:50 AM)100% (Feb 18, 6:20 PM)30.63 "Hg (Feb 18, 6:20 PM)
Low27 °F (Feb 20, 12:20 AM)42% (Feb 28, 4:20 PM)29.33 "Hg (Feb 21, 6:50 AM)
Average38 °F85%29.90 "Hg
* Reported Feb 18 4:20 PM — Mar 5 4:50 PM, Paderborn, Weather by CustomWeather, © 2015

Note: Actual official high and low records may vary slightly from our data, if they occured in-between our weather recording intervals... More about our weather records

Advertising

Paderborn weather history for previous 24 hours

 ConditionsComfort  
Time TempWeatherWind HumidityBarometerVisibility
4:50 PM
Thu, Mar 5
41 °FBroken clouds.6 mph81%30.60 "HgN/A
4:20 PM41 °FBroken clouds.7 mph81%30.60 "HgN/A
3:50 PM41 °FBroken clouds.8 mph87%30.60 "HgN/A
3:20 PM41 °FBroken clouds.8 mph81%30.60 "HgN/A
2:50 PM41 °FBroken clouds.9 mph93%30.60 "HgN/A
2:20 PM41 °FBroken clouds.8 mph87%30.60 "HgN/A
1:50 PM39 °FBroken clouds.8 mph93%30.60 "HgN/A
1:20 PM39 °FBroken clouds.8 mph100%30.60 "HgN/A
12:50 PM37 °FBroken clouds.7 mph100%30.60 "HgN/A
12:20 PM37 °FBroken clouds.9 mph100%30.60 "Hg6 mi
11:50 AM37 °FBroken clouds.9 mph100%30.60 "Hg6 mi
11:20 AM37 °FBroken clouds.8 mph100%30.60 "Hg6 mi
10:50 AM37 °FBroken clouds.8 mph93%30.60 "HgN/A
10:20 AM37 °FBroken clouds.7 mph93%30.60 "Hg4 mi
9:50 AM36 °FBroken clouds.7 mph100%30.60 "Hg4 mi
9:20 AM36 °FBroken clouds.7 mph100%30.60 "Hg5 mi
8:50 AM36 °FDrizzle. Broken clouds.7 mph100%30.57 "Hg5 mi
8:20 AM34 °FDrizzle. Partly sunny.5 mph100%30.57 "Hg5 mi
7:50 AM34 °FPartly sunny.7 mph100%30.57 "Hg5 mi
7:20 AM34 °FPartly sunny.7 mph100%30.57 "Hg5 mi
6:50 AM36 °FPartly cloudy.7 mph93%30.54 "HgN/A
6:20 AM36 °FPassing clouds.7 mph93%30.54 "HgN/A
5:20 AM36 °FPassing clouds.7 mph93%30.54 "HgN/A
4:20 AM36 °FPartly cloudy.8 mph93%30.51 "HgN/A
3:50 AM36 °FPartly cloudy.8 mph100%30.51 "HgN/A
2:50 AM36 °FPartly cloudy.8 mph100%30.48 "HgN/A
2:20 AM36 °FPartly cloudy.9 mph100%30.48 "HgN/A
1:50 AM36 °FPassing clouds.9 mph100%30.45 "HgN/A
1:20 AM36 °FPassing clouds.9 mph100%30.45 "HgN/A
12:50 AM36 °FPartly cloudy.8 mph100%30.42 "HgN/A
12:20 AM36 °FPassing clouds.10 mph100%30.39 "HgN/A
11:50 PM
Wed, Mar 4
36 °FLight rain. Passing clouds.12 mph100%30.39 "Hg6 mi
11:20 PM36 °FLight rain. Passing clouds.7 mph100%30.36 "Hg6 mi
10:20 PM36 °FPassing clouds.10 mph100%30.33 "HgN/A
9:50 PM36 °FLight rain. Passing clouds.14 mph100%30.30 "Hg4 mi
9:20 PM36 °FRain. Passing clouds.17 mph100%30.27 "Hg4 mi
8:50 PM36 °FLight rain. Partly cloudy.10 mph100%30.30 "Hg6 mi
8:20 PM36 °FLight rain. Passing clouds.10 mph100%30.27 "Hg6 mi
7:50 PM37 °FPassing clouds.13 mph93%30.27 "HgN/A
7:20 PM37 °FPassing clouds.12 mph93%30.27 "HgN/A
6:50 PM37 °FPassing clouds.10 mph93%30.27 "HgN/A
6:20 PM37 °FPassing clouds.12 mph93%30.24 "HgN/A
5:50 PM39 °FRain showers. Scattered clouds.13 mph81%30.24 "HgN/A
5:20 PM39 °FScattered clouds.15 mph81%30.21 "HgN/A
Weather by CustomWeather, © 2015

See weather overviewHow to use our weather pages